Date String (YYYY-MM-DD hh:mm:ss) UTC,Instrument flags,Ambient pressure (hPa),Sample flow (lpm),Bypass flow (lpm),Sample temperature (°C),Ambient temperature (°C),ASC tube jacket temperature (°C),LED temperature (°C),Box temperature (°C),Sample RH (%),Span deviation,Mass concentration (μg/m³),Mass concentration (μg/m³),Mass concentration (μg/m³)
DateTimeUTC,F1_M11,P_M11,Q1_M11,Q2_M11,T1_M11,T2_M11,T3_M11,T4_M11,T5_M11,U1_M11,ZSPAN_M11,X2_M11,X0_M11,X1_M11
2022-12-11 21:00:00,,0817.1,5.00,0.00,28.6,27.6,00.0,37.3,30.5,05.5,0000.0,0002.42,0005.76,0001.75
2022-12-11 21:01:00,,0817.1,5.00,0.00,28.6,27.6,00.0,37.3,30.5,05.3,0000.0,0002.36,0006.43,0001.72
2022-12-11 21:02:00,,0817.1,5.00,0.00,28.7,27.6,00.0,37.3,30.5,05.5,0000.0,0002.33,0006.92,0001.69
2022-12-11 21:03:00,,0817.1,5.00,0.00,28.7,27.6,00.0,37.4,30.5,05.4,0000.0,0002.34,0007.25,0001.69
2022-12-11 21:04:00,,0817.1,5.00,0.00,28.7,27.7,00.0,37.4,30.6,05.4,0000.0,0002.31,0006.98,0001.68
2022-12-11 21:05:00,,0817.1,5.00,0.00,28.7,27.7,00.0,37.4,30.6,05.5,0000.0,0002.38,0006.93,0001.69
2022-12-11 21:06:00,,0817.0,5.00,0.00,28.7,27.7,00.0,37.4,30.6,05.5,0000.0,0002.37,0007.01,0001.67
2022-12-11 21:07:00,,0817.0,5.00,0.00,28.7,27.7,00.0,37.4,30.6,05.4,0000.0,0002.32,0006.83,0001.65
2022-12-11 21:08:00,,0817.0,5.00,0.00,28.8,27.7,00.0,37.5,30.6,05.6,0000.0,0002.24,0006.39,0001.63
2022-12-11 21:09:00,,0817.0,5.00,0.00,28.8,27.7,00.0,37.5,30.7,05.5,0000.0,0002.18,0006.23,0001.60
2022-12-11 21:10:00,,0817.0,5.00,0.00,28.8,27.7,00.0,37.5,30.7,05.6,0000.0,0002.11,0005.89,0001.57
2022-12-11 21:11:00,,0817.1,5.00,0.00,28.8,27.8,00.0,37.5,30.7,05.5,0000.0,0002.06,0005.67,0001.55
2022-12-11 21:12:00,,0817.1,5.00,0.00,28.8,27.8,00.0,37.5,30.7,05.6,0000.0,0002.08,0006.77,0001.55
2022-12-11 21:13:00,,0817.1,5.00,0.00,28.8,27.8,00.0,37.5,30.7,05.5,0000.0,0002.10,0006.41,0001.56
2022-12-11 21:14:00,,0817.0,5.00,0.00,28.8,27.8,00.0,37.6,30.7,05.5,0000.0,0002.11,0006.14,0001.56
2022-12-11 21:15:00,,0817.1,5.00,0.00,28.9,27.8,00.0,37.6,30.7,05.4,0000.0,0002.11,0006.07,0001.56
2022-12-11 21:16:00,,0817.0,5.00,0.00,28.9,27.8,00.0,37.6,30.7,05.3,0000.0,0002.04,0005.92,0001.55
2022-12-11 21:17:00,,0817.0,5.00,0.00,28.9,27.8,00.0,37.6,30.8,05.2,0000.0,0001.98,0005.71,0001.52
2022-12-11 21:18:00,,0817.0,5.00,0.00,28.9,27.8,00.0,37.6,30.8,05.3,0000.0,0001.91,0005.36,0001.50
2022-12-11 21:19:00,,0817.0,4.99,0.00,28.9,27.8,00.0,37.6,30.8,05.2,0000.0,0001.89,0005.11,0001.47
2022-12-11 21:20:00,,0817.2,4.99,0.00,28.9,27.9,00.0,37.7,30.8,05.2,0000.0,0001.89,0005.18,0001.43
2022-12-11 21:21:00,,0817.0,5.01,0.00,29.0,27.9,00.0,37.7,30.8,05.1,0000.0,0001.91,0005.52,0001.39
2022-12-11 21:22:00,,0817.0,5.01,0.00,29.0,27.9,00.0,37.7,30.8,05.2,0000.0,0001.88,0005.23,0001.35
2022-12-11 21:23:00,,0817.0,5.00,0.00,29.0,27.9,00.0,37.7,30.9,05.1,0000.0,0001.82,0003.97,0001.30
2022-12-11 21:24:00,,0817.0,4.99,0.00,29.0,27.9,00.0,37.7,30.9,05.1,0000.0,0001.81,0003.58,0001.26
2022-12-11 21:25:00,,0816.9,4.99,0.00,29.0,28.0,00.0,37.7,30.9,05.1,0000.0,0001.74,0003.43,0001.22
2022-12-11 21:26:00,,0817.0,5.00,0.00,29.0,28.0,00.0,37.8,30.9,05.0,0000.0,0001.69,0004.20,0001.19
2022-12-11 21:27:00,,0817.3,5.00,0.00,29.1,28.0,00.0,37.8,30.9,05.1,0000.0,0001.65,0004.13,0001.16
2022-12-11 21:28:00,,0817.0,5.00,0.00,29.1,28.0,00.0,37.8,30.9,05.1,0000.0,0001.62,0004.03,0001.15
2022-12-11 21:29:00,,0817.3,5.00,0.00,29.1,28.1,00.0,37.8,31.0,05.1,0000.0,0001.62,0004.05,0001.14
2022-12-11 21:30:00,,0817.0,5.00,0.00,29.1,28.1,00.0,37.8,31.0,05.1,0000.0,0001.63,0004.10,0001.13
2022-12-11 21:31:00,,0817.1,5.00,0.00,29.2,28.1,00.0,37.8,31.0,05.1,0000.0,0001.59,0004.17,0001.13
2022-12-11 21:32:00,,0817.4,5.00,0.00,29.2,28.1,00.0,37.9,31.0,05.0,0000.0,0001.54,0003.94,0001.12
2022-12-11 21:33:00,,0817.3,5.00,0.00,29.2,28.2,00.0,37.9,31.0,05.0,0000.0,0001.49,0003.84,0001.09
2022-12-11 21:34:00,,0817.3,5.01,0.00,29.2,28.2,00.0,37.9,31.0,05.0,0000.0,0001.46,0003.51,0001.08
2022-12-11 21:35:00,,0817.4,5.01,0.00,29.2,28.2,00.0,37.9,31.1,05.0,0000.0,0001.39,0003.19,0001.06
2022-12-11 21:36:00,,0816.9,5.00,0.00,29.2,28.2,00.0,37.9,31.1,05.0,0000.0,0001.38,0003.17,0001.04
2022-12-11 21:37:00,,0816.8,4.99,0.00,29.3,28.2,00.0,38.0,31.1,05.0,0000.0,0001.41,0002.59,0001.03
2022-12-11 21:38:00,,0816.8,5.00,0.00,29.3,28.2,00.0,38.0,31.1,05.0,0000.0,0001.49,0002.66,0001.03
2022-12-11 21:39:00,,0816.8,5.00,0.00,29.3,28.2,00.0,38.0,31.1,05.0,0000.0,0001.50,0002.69,0001.03
2022-12-11 21:40:00,,0816.8,5.00,0.00,29.3,28.2,00.0,38.0,31.1,05.0,0000.0,0001.55,0002.79,0001.03
2022-12-11 21:41:00,,0816.9,5.00,0.00,29.3,28.3,00.0,38.0,31.2,05.1,0000.0,0001.56,0002.84,0001.02
2022-12-11 21:42:00,,0816.9,4.99,0.00,29.3,28.3,00.0,38.0,31.2,05.1,0000.0,0001.56,0002.68,0001.01
2022-12-11 21:43:00,,0816.8,5.00,0.00,29.3,28.3,00.0,38.1,31.2,05.0,0000.0,0001.52,0002.95,0001.02
2022-12-11 21:44:00,,0816.9,5.01,0.00,29.4,28.3,00.0,38.1,31.2,05.1,0000.0,0001.54,0003.24,0001.05
2022-12-11 21:45:00,,0816.9,5.00,0.00,29.4,28.3,00.0,38.1,31.2,05.0,0000.0,0001.59,0003.34,0001.07
2022-12-11 21:46:00,,0816.9,5.01,0.00,29.4,28.3,00.0,38.1,31.2,05.0,0000.0,0001.58,0003.34,0001.08
2022-12-11 21:47:00,,0816.9,5.00,0.00,29.4,28.3,00.0,38.1,31.2,05.0,0000.0,0001.60,0003.49,0001.09
2022-12-11 21:48:00,,0816.8,4.99,0.00,29.4,28.4,00.0,38.1,31.3,05.0,0000.0,0001.58,0004.38,0001.10
2022-12-11 21:49:00,,0816.9,4.99,0.00,29.4,28.4,00.0,38.2,31.3,05.0,0000.0,0001.54,0004.18,0001.11
2022-12-11 21:50:00,,0816.8,5.00,0.00,29.5,28.4,00.0,38.2,31.3,05.1,0000.0,0001.57,0004.23,0001.10
2022-12-11 21:51:00,,0816.8,5.00,0.00,29.5,28.4,00.0,38.2,31.3,05.2,0000.0,0001.54,0004.19,0001.09
2022-12-11 21:52:00,,0816.9,5.00,0.00,29.5,28.4,00.0,38.2,31.3,05.1,0000.0,0001.54,0004.70,0001.10
2022-12-11 21:53:00,,0816.9,5.01,0.00,29.5,28.4,00.0,38.2,31.3,05.1,0000.0,0001.56,0005.10,0001.10
2022-12-11 21:54:00,,0816.9,5.00,0.00,29.5,28.4,00.0,38.2,31.3,05.2,0000.0,0001.64,0004.87,0001.09
2022-12-11 21:55:00,,0816.8,5.00,0.00,29.5,28.4,00.0,38.3,31.4,05.3,0000.0,0001.68,0004.79,0001.10
2022-12-11 21:56:00,,0816.9,5.00,0.00,29.5,28.4,00.0,38.3,31.4,05.3,0000.0,0001.74,0005.29,0001.11
2022-12-11 21:57:00,,0816.8,5.00,0.00,29.6,28.4,00.0,38.3,31.4,05.2,0000.0,0001.79,0006.81,0001.13
2022-12-11 21:58:00,,0816.9,5.00,0.00,29.6,28.5,00.0,38.3,31.4,05.2,0000.0,0001.81,0007.24,0001.13
2022-12-11 21:59:00,,0816.8,5.00,0.00,29.6,28.5,00.0,38.3,31.4,05.1,0000.0,0001.86,0006.65,0001.15
